{"data":{"norad_id":44714,"epoch":"2026-09-19T19:29:16.918368Z","epoch_age_seconds":77690,"freshness":"FRESH","line1":"1 44714U 19074B   26262.81200137  .00029995  00000+0  30397-3 0  9999","line2":"2 44714  53.1472 330.3726 0002434  72.3186 287.8096 15.65019755378965","mean_motion":15.65019755,"eccentricity":0.0002434,"inclination_deg":53.1472,"raan_deg":330.3726,"arg_perigee_deg":72.3186,"mean_anomaly_deg":287.8096,"bstar":0.00030397,"rev_number":37896,"period_min":92.011618089767,"perigee_km":371.53867390605,"apogee_km":374.82521596844,"semimajor_km":6751.3189449372,"source":"CELESTRAK","updated_at":"2026-09-20T09:00:38.217795Z"}}